[[{"header":{"parameterUnit":"m.s-1","parameterCategory":2,"la1":30.2991,"la2":30.254,"lo1":-89.0895,"lo2":-89.0444,"dy":0.0017,"dx":0.0017,"nx":28,"ny":28,"refTime":"2024-07-25T21:00:00:Z","depth":"0","parameterNumber":2,"parameterNumberName":"U-component_of_CURRENTS"},"data":[0,0,0,0,0,0,0,0,0,0,0,0,0,0,0,0,0,0,0,0,0,0,0,0,0,0,0,0,0,0,0,0,0,0,0,0,0,0,0,0,0,0,0,0,0,0,0,0,0,0,0,0,0,0,0,0,0,0,0.262,0.2621,0,0.2671,0.2671,0.2672,0.2688,0.2688,0.2688,0.2688,0.2705,0.2705,0.2705,0,0,0,0,0,0,0,0,0,0,0,0,0,0.2518,0.252,0.262,0.2621,0.2622,0.2671,0.2671,0.2672,0.2688,0.2688,0.2688,0.2688,0.2704,0.2705,0.2705,0,0,0,0,0,0,0,0,0,0,0,0,0,0.2562,0.252,0.262,0.2638,0.264,0.2671,0.2671,0.2672,0.2688,0.2688,0.2688,0.2688,0.2704,0.2705,0.2705,0.2708,0,0,0.2707,0.2708,0,0,0,0,0,0,0,0,0.256,0.2566,0.2635,0.2637,0.264,0.2676,0.2642,0.2683,0.2688,0.2667,0.2688,0.2688,0.2694,0.2695,0.2701,0.2709,0.2709,0.2707,0.2708,0.2708,0.2708,0,0,0,0,0,0,0,0.2557,0.2564,0.2637,0.2636,0.2639,0.2638,0.2644,0.265,0.2676,0.2669,0.2671,0.2681,0.2694,0.27,0.2701,0.271,0.2707,0.2708,0.2708,0.2708,0.2716,0.2716,0,0,0,0,0,0,0.2558,0.2561,0.2636,0.2639,0.2603,0.264,0.2646,0.2662,0.2677,0.2681,0.2681,0.2682,0.2699,0.2701,0.2702,0.2697,0.2708,0.2709,0.2709,0.2717,0.2716,0.2716,0,0,0,0,0,0,0.2555,0.2564,0.2634,0.2603,0.2612,0.2642,0.2659,0.2663,0.2666,0.2687,0.269,0.268,0.2699,0.2701,0.271,0.2698,0.2709,0.2709,0.2717,0.2717,0.2716,0.2693,0,0,0,0,0,0,0.2552,0.2563,0.2563,0.2603,0.2614,0.2637,0.2659,0.2664,0.2674,0.2675,0.2687,0.2689,0.2699,0.2709,0.271,0.2699,0.271,0.2717,0.2717,0.2716,0.2694,0.2692,0.269,0,0,0,0,0,0.2549,0.2545,0.2563,0.2572,0.2618,0.2636,0.264,0.266,0.2674,0.2664,0.2687,0.2689,0.2708,0.271,0.2711,0.27,0.2717,0.2717,0.2716,0.2695,0.2692,0.269,0,0,0,0,0,0,0.249,0.2549,0.2568,0.2581,0.2602,0.264,0.2633,0.2656,0.2667,0.2668,0.2691,0.2694,0.27,0.2703,0.2704,0.2702,0.2711,0.2711,0.2694,0.2691,0.269,0.2668,0.271,0,0,0,0,0,0.2483,0.2498,0.2548,0.2551,0.2564,0.26,0.2608,0.2626,0.2649,0.2653,0.2665,0.268,0.27,0.2698,0.2712,0.2706,0.2725,0.2699,0.2697,0.2696,0.268,0.2704,0.2703,0.2715,0.2715,0.2715,0,0,0.2459,0.2493,0.25,0.254,0.2559,0.257,0.2603,0.2612,0.2617,0.2653,0.2649,0.2677,0.2701,0.2703,0.2704,0.2701,0.2707,0.2695,0.2694,0.2679,0.2704,0.2703,0.2702,0.2715,0.2715,0.2715,0,0,0.242,0.2452,0.2455,0.2475,0.251,0.2534,0.2537,0.2573,0.2581,0.2594,0.2627,0.2643,0.2661,0.2675,0.2688,0.268,0.2705,0.2686,0.2649,0.2673,0.2672,0.2672,0.2715,0.2719,0.2675,0.2675,0.2675,0,0.2389,0.2405,0.2451,0.246,0.2467,0.2518,0.2513,0.2534,0.2564,0.2568,0.2584,0.2626,0.2645,0.2659,0.266,0.2673,0.2702,0.2657,0.2671,0.267,0.267,0.2715,0.2719,0.2674,0.2674,0.2674,0.2674,0,0.2361,0.237,0.2368,0.2402,0.2414,0.2413,0.2458,0.2466,0.249,0.2514,0.2533,0.2569,0.2593,0.2604,0.2632,0.2639,0.2667,0.2675,0.2675,0.2667,0.2715,0.272,0.2672,0.2673,0.2673,0.2673,0,0,0.2298,0.2341,0.2338,0.2339,0.2382,0.2386,0.2397,0.2418,0.2421,0.2454,0.2456,0.2499,0.2529,0.2545,0.2583,0.2596,0.2633,0.263,0.2632,0.2672,0.2708,0.271,0.2716,0.2649,0.2649,0.2649,0.275,0,0.2256,0.2256,0.2288,0.227,0.2272,0.2316,0.2318,0.2345,0.2376,0.239,0.2438,0.2462,0.2506,0.2525,0.2547,0.2618,0.264,0.2605,0.271,0.2713,0.2714,0.2718,0.2622,0.2702,0.2755,0.2756,0.2756,0,0.2217,0.2222,0.2203,0.221,0.2212,0.2208,0.2219,0.2233,0.228,0.2305,0.2347,0.2398,0.2448,0.2476,0.2582,0.2564,0.2627,0.2674,0.2679,0.2685,0.2722,0.2714,0.2708,0.2569,0.2764,0.2763,0.2762,0,0.2151,0.2156,0.2133,0.2138,0.216,0.2149,0.2162,0.22,0.2212,0.2262,0.2282,0.2351,0.2402,0.2477,0.2609,0.2595,0.2725,0.2719,0.2778,0.2781,0.2718,0.2714,0.2581,0.277,0.2769,0.2769,0.2769,0,0.21,0.2078,0.2099,0.2087,0.2054,0.209,0.2071,0.2101,0.2139,0.2156,0.2239,0.2277,0.2405,0.2508,0.2599,0.2724,0.2731,0.2769,0.2799,0.271,0.2704,0.2596,0.2536,0.2773,0.2772,0.2771,0.2771,0,0.2041,0.2052,0.2028,0.2031,0.2027,0.201,0.2027,0.2023,0.2072,0.2101,0.2121,0.2241,0.238,0.2519,0.2665,0.2722,0.2737,0.2867,0.277,0.2784,0.2667,0.2611,0.2468,0.2418,0.2917,0.2918,0.2918,0,0.2016,0.1998,0.1987,0.1971,0.1969,0.1956,0.1948,0.1987,0.1997,0.2085,0.2095,0.2237,0.234,0.257,0.2711,0.2872,0.2759,0.2844,0.2776,0.2636,0.2596,0.2481,0.2441,0.2702,0.27,0.2699,0.2698,0,0.197,0.1964,0.1951,0.1924,0.1902,0.1885,0.1882,0.1879,0.1935,0.1972,0.2049,0.2134,0.2368,0.2489,0.2705,0.2796,0.2655,0.2824,0.2688,0.2414,0.2268,0.2244,0.2679,0.2688,0.2689,0.269,0.2691,0.2691,0.1938,0.1924,0.1909,0.1877,0.185,0.1819,0.1795,0.1809,0.1826,0.1873,0.1979,0.2077,0.2233,0.2526,0.2616,0.2621,0.2617,0.2524,0.2476,0.2379,0.2275,0.2699,0.2731,0.2733,0.2734,0.2735,0.2735,0,0.1907,0.1895,0.1865,0.1819,0.1771,0.1777,0.1751,0.1728,0.1733,0.1801,0.187,0.1977,0.2091,0.2226,0.2302,0.2243,0.2199,0.217,0.195,0.1941,0.2325,0.2257,0.2173,0.2173,0.2173,0.2173,0.2173,0.2173,0.1891,0.1861,0.1846,0.1758,0.172,0.1652,0.1632,0.161,0.1632,0.1649,0.1684,0.1755,0.1819,0.183,0.1798,0.1818,0.1665,0.1615,0.1615,0.1829,0.1856,0.1882,0.18,0.1621,0.162,0.1164,0.116,0.1157]},{"header":{"parameterUnit":"m.s-1","parameterCategory":2,"la1":30.2991,"la2":30.254,"lo1":-89.0895,"lo2":-89.0444,"dy":0.0017,"dx":0.0017,"nx":28,"ny":28,"refTime":"2024-07-25T21:00:00:Z","depth":"0","parameterNumber":3,"parameterNumberName":"V-component_of_CURRENTS"},"data":[0,0,0,0,0,0,0,0,0,0,0,0,0,0,0,0,0,0,0,0,0,0,0,0,0,0,0,0,0,0,0,0,0,0,0,0,0,0,0,0,0,0,0,0,0,0,0,0,0,0,0,0,0,0,0,0,0,0,0.0239,0.0239,0,0.0248,0.0248,0.0248,0.0224,0.0224,0.0223,0.0223,0.0179,0.0178,0.0178,0,0,0,0,0,0,0,0,0,0,0,0,0,0.0206,0.0207,0.0239,0.0239,0.024,0.0248,0.0248,0.0248,0.0224,0.0224,0.0223,0.0222,0.0179,0.0179,0.0178,0,0,0,0,0,0,0,0,0,0,0,0,0,0.0216,0.0207,0.0239,0.0231,0.023,0.0248,0.0248,0.0248,0.0224,0.0224,0.0223,0.0222,0.018,0.0179,0.0178,0.0187,0,0,0.0175,0.0174,0,0,0,0,0,0,0,0,0.0215,0.0217,0.0232,0.0231,0.0231,0.0236,0.022,0.0226,0.0225,0.0224,0.0223,0.0222,0.0195,0.0193,0.0194,0.0185,0.0183,0.0174,0.0174,0.0173,0.0173,0,0,0,0,0,0,0,0.0215,0.0217,0.024,0.0232,0.0232,0.0228,0.0228,0.0221,0.0211,0.0224,0.0223,0.0228,0.0194,0.0195,0.0193,0.0183,0.0174,0.0174,0.0173,0.0173,0.017,0.0171,0,0,0,0,0,0,0.0219,0.0216,0.024,0.0241,0.0224,0.0229,0.0229,0.0233,0.0213,0.021,0.0229,0.0227,0.0197,0.0194,0.0191,0.0199,0.0173,0.0172,0.0172,0.017,0.017,0.0171,0,0,0,0,0,0,0.0218,0.0221,0.024,0.023,0.0233,0.0231,0.0235,0.0234,0.0234,0.0217,0.0212,0.023,0.0196,0.0192,0.0193,0.0197,0.0172,0.0171,0.0169,0.017,0.0171,0.0216,0,0,0,0,0,0,0.0217,0.0221,0.0223,0.0231,0.0233,0.025,0.0236,0.0235,0.024,0.0237,0.0217,0.0212,0.0195,0.0194,0.0192,0.0195,0.017,0.0168,0.0169,0.017,0.0214,0.0218,0.0222,0,0,0,0,0,0.0216,0.0225,0.0223,0.0226,0.0238,0.0251,0.0252,0.0246,0.0241,0.0243,0.0235,0.0213,0.0198,0.0195,0.0191,0.0194,0.0168,0.0169,0.017,0.0212,0.0217,0.0222,0,0,0,0,0,0,0.0214,0.0224,0.0222,0.0234,0.0242,0.0248,0.0253,0.0251,0.0248,0.0245,0.0226,0.0221,0.022,0.0205,0.0201,0.0196,0.0177,0.0178,0.021,0.0215,0.0219,0.022,0.0169,0,0,0,0,0,0.0216,0.0223,0.0233,0.0243,0.0248,0.0251,0.0256,0.0254,0.0255,0.0253,0.0242,0.023,0.0224,0.0218,0.0208,0.0211,0.0199,0.0208,0.0213,0.0216,0.0215,0.0207,0.021,0.0175,0.0175,0.0175,0,0,0.0218,0.0225,0.0229,0.0242,0.0248,0.0258,0.0252,0.0262,0.0268,0.0249,0.0252,0.0245,0.0229,0.023,0.0228,0.0217,0.0224,0.0218,0.0221,0.0218,0.0208,0.0212,0.0215,0.0176,0.0176,0.0175,0,0,0.0233,0.0234,0.0247,0.0252,0.0264,0.0266,0.0271,0.0279,0.0278,0.0286,0.0274,0.0274,0.0262,0.0256,0.025,0.0272,0.0247,0.0264,0.0285,0.0277,0.028,0.0282,0.0288,0.0291,0.0265,0.0265,0.0265,0,0.0238,0.0251,0.0253,0.0266,0.0271,0.027,0.0284,0.0287,0.0293,0.0299,0.0289,0.0288,0.0274,0.0281,0.0287,0.0281,0.0275,0.0269,0.0283,0.0285,0.0286,0.0291,0.0293,0.0268,0.0267,0.0267,0.0267,0,0.0262,0.0269,0.0278,0.029,0.0296,0.0307,0.0312,0.0318,0.0318,0.0321,0.033,0.0321,0.032,0.0316,0.0308,0.0315,0.0309,0.0291,0.0271,0.0292,0.0297,0.0298,0.0271,0.027,0.0269,0.0269,0,0,0.0285,0.0294,0.0296,0.0302,0.0308,0.0318,0.0328,0.0342,0.0356,0.0354,0.0374,0.0366,0.0364,0.0357,0.0349,0.0342,0.0355,0.0323,0.0321,0.0331,0.0348,0.0358,0.036,0.0338,0.0338,0.0338,0.0353,0,0.0305,0.0327,0.0325,0.0342,0.0354,0.035,0.0362,0.0371,0.0378,0.0396,0.0389,0.0402,0.0378,0.0386,0.0375,0.0364,0.0358,0.0353,0.0324,0.0324,0.033,0.0361,0.0388,0.0404,0.0354,0.0354,0.0355,0,0.0332,0.034,0.036,0.0369,0.0376,0.0383,0.0402,0.0412,0.043,0.044,0.0447,0.0445,0.0449,0.042,0.0404,0.0403,0.0377,0.0361,0.0361,0.0352,0.0335,0.0371,0.0408,0.0353,0.0356,0.0356,0.0356,0,0.0349,0.0366,0.038,0.0382,0.0394,0.0402,0.0409,0.0426,0.0449,0.047,0.0496,0.0489,0.0503,0.0464,0.0441,0.042,0.0424,0.0388,0.0371,0.0372,0.038,0.0381,0.0359,0.0364,0.0364,0.0364,0.0364,0,0.0371,0.0382,0.0388,0.0395,0.042,0.0418,0.045,0.046,0.0489,0.0531,0.052,0.0561,0.0513,0.0514,0.0465,0.0441,0.0443,0.0384,0.0377,0.0398,0.0401,0.0339,0.0303,0.0365,0.0365,0.0364,0.0364,0,0.0388,0.039,0.0409,0.0421,0.0428,0.0445,0.0478,0.0507,0.0529,0.0585,0.0598,0.0624,0.0633,0.0592,0.055,0.0489,0.0436,0.0436,0.0476,0.0472,0.0383,0.0349,0.0337,0.0337,0.041,0.041,0.041,0,0.04,0.041,0.043,0.0447,0.0452,0.0478,0.0503,0.0526,0.0562,0.0633,0.0667,0.07,0.0747,0.0704,0.0611,0.0541,0.048,0.049,0.0441,0.0392,0.0349,0.0335,0.0335,0.0477,0.0477,0.0478,0.0479,0,0.0425,0.0429,0.0444,0.0477,0.0502,0.0539,0.0574,0.0611,0.0652,0.0714,0.08,0.0846,0.0823,0.0787,0.0687,0.062,0.0472,0.0499,0.0437,0.0393,0.039,0.0383,0.0459,0.0484,0.0484,0.0483,0.0483,0.0483,0.0446,0.0462,0.0483,0.0515,0.055,0.0601,0.0639,0.0693,0.0771,0.088,0.0907,0.1012,0.0928,0.0811,0.0711,0.0528,0.0517,0.0451,0.0415,0.0406,0.0403,0.05,0.052,0.052,0.0519,0.0519,0.0519,0,0.0476,0.0491,0.0522,0.0564,0.0609,0.0621,0.0691,0.0744,0.0848,0.0971,0.1067,0.1113,0.1005,0.0854,0.0599,0.0461,0.0425,0.0386,0.0364,0.0367,0.0443,0.0441,0.0461,0.0461,0.0461,0.0461,0.0461,0.0461,0.0494,0.0523,0.0536,0.0611,0.0643,0.0711,0.0755,0.0848,0.0947,0.1113,0.1207,0.1265,0.1132,0.0694,0.0415,0.0364,0.0292,0.028,0.0238,0.0264,0.0267,0.027,0.0259,0.024,0.024,0.02,0.0199,0.0199]}],[{"header":{"parameterUnit":"m.s-1","parameterCategory":2,"la1":30.2991,"la2":30.254,"lo1":-89.0895,"lo2":-89.0444,"dy":0.0017,"dx":0.0017,"nx":28,"ny":28,"refTime":"2024-07-25T21:00:00:Z","depth":"2","parameterNumber":2,"parameterNumberName":"U-component_of_CURRENTS"},"data":[0,0,0,0,0,0,0,0,0,0,0,0,0,0,0,0,0,0,0,0,0,0,0,0,0,0,0,0,0,0,0,0,0,0,0,0,0,0,0,0,0,0,0,0,0,0,0,0,0,0,0,0,0,0,0,0,0,0,0.0597,0.0597,0,0.0598,0.0598,0.0598,0.0636,0.0637,0.0638,0.064,0.0703,0.0703,0.0704,0,0,0,0,0,0,0,0,0,0,0,0,0,0.0641,0.0639,0.0597,0.0597,0.0598,0.0598,0.0598,0.0598,0.0636,0.0637,0.0639,0.064,0.0702,0.0703,0.0704,0,0,0,0,0,0,0,0,0,0,0,0,0,0.0627,0.0639,0.0597,0.0619,0.0621,0.0598,0.0598,0.0598,0.0635,0.0637,0.0639,0.0641,0.0702,0.0703,0.0704,0.067,0,0,0.0706,0.0706,0,0,0,0,0,0,0,0,0.0627,0.0625,0.0615,0.0617,0.062,0.0622,0.0637,0.0626,0.0635,0.0626,0.064,0.0642,0.0682,0.0684,0.0675,0.0673,0.0675,0.0706,0.0706,0.0707,0.0707,0,0,0,0,0,0,0,0.0628,0.0625,0.0594,0.0616,0.0618,0.0634,0.0633,0.0634,0.0642,0.0627,0.0631,0.0636,0.0684,0.0674,0.0677,0.0676,0.0706,0.0707,0.0707,0.0707,0.077,0.0771,0,0,0,0,0,0,0.0631,0.0625,0.0594,0.0595,0.0632,0.0632,0.0631,0.0616,0.0641,0.0647,0.0634,0.0637,0.0672,0.0676,0.0679,0.0758,0.0707,0.0707,0.0708,0.0768,0.077,0.0771,0,0,0,0,0,0,0.0632,0.0628,0.0594,0.0614,0.0612,0.0629,0.0612,0.0616,0.0649,0.0646,0.0653,0.0669,0.0673,0.0678,0.0715,0.0757,0.0708,0.0708,0.0767,0.0769,0.0771,0.084,0,0,0,0,0,0,0.0633,0.0627,0.0632,0.0613,0.0611,0.0607,0.0611,0.0614,0.0648,0.0653,0.0677,0.0683,0.0675,0.0714,0.0715,0.0757,0.0709,0.0765,0.0768,0.077,0.0836,0.0844,0.0851,0,0,0,0,0,0.0634,0.0627,0.0632,0.063,0.0611,0.0608,0.0609,0.0626,0.0648,0.0663,0.0683,0.0684,0.073,0.0715,0.0717,0.0759,0.0764,0.0767,0.077,0.0833,0.0843,0.0851,0,0,0,0,0,0,0.0658,0.0629,0.0635,0.0623,0.0631,0.0617,0.0633,0.0647,0.0671,0.0691,0.0692,0.0698,0.0747,0.0739,0.0722,0.0783,0.075,0.0753,0.0798,0.0806,0.0814,0.0823,0.071,0,0,0,0,0,0.0662,0.0649,0.0636,0.0636,0.0639,0.0645,0.0653,0.0667,0.0679,0.0694,0.0715,0.0735,0.0749,0.0769,0.0776,0.0806,0.082,0.0836,0.0843,0.085,0.0858,0.0906,0.0919,0.078,0.078,0.078,0,0,0.0677,0.0659,0.0657,0.0642,0.0647,0.0651,0.0655,0.0679,0.0699,0.0696,0.0746,0.0763,0.0761,0.0797,0.0819,0.0804,0.0901,0.0853,0.0859,0.0863,0.091,0.0924,0.0936,0.0782,0.0782,0.0781,0,0,0.0692,0.0682,0.0677,0.0677,0.069,0.0686,0.0704,0.0717,0.0742,0.078,0.0787,0.0829,0.0854,0.0862,0.0865,0.0915,0.0935,0.0931,0.0981,0.1028,0.104,0.1051,0.1107,0.1122,0.0939,0.0939,0.0939,0,0.0725,0.0701,0.0683,0.0681,0.0693,0.0707,0.0722,0.0733,0.0767,0.0798,0.0813,0.0876,0.0879,0.0917,0.0941,0.0933,0.0972,0.0949,0.1039,0.105,0.106,0.1114,0.113,0.0942,0.0942,0.0942,0.0941,0,0.0722,0.0722,0.0724,0.0718,0.0726,0.0746,0.0754,0.0792,0.0833,0.0854,0.0928,0.094,0.0987,0.0994,0.0984,0.1059,0.107,0.1042,0.102,0.1078,0.1132,0.1147,0.0948,0.0946,0.0945,0.0944,0,0,0.077,0.073,0.0743,0.0749,0.0753,0.0764,0.0796,0.0832,0.0882,0.093,0.0999,0.103,0.1073,0.1079,0.1088,0.1125,0.1231,0.1129,0.113,0.1189,0.1365,0.1247,0.1252,0.1234,0.1237,0.1239,0.1382,0,0.0795,0.0789,0.0765,0.0796,0.08,0.0814,0.0841,0.0881,0.0931,0.1,0.1036,0.1106,0.1093,0.1148,0.1183,0.1219,0.1272,0.1196,0.1294,0.1297,0.1188,0.1265,0.111,0.1213,0.1396,0.1399,0.14,0,0.0818,0.0807,0.0827,0.0835,0.0843,0.0876,0.0945,0.0971,0.1043,0.1091,0.1166,0.12,0.1279,0.1255,0.1362,0.1326,0.1364,0.1378,0.1383,0.1256,0.1206,0.1179,0.1233,0.1426,0.1424,0.1422,0.142,0,0.0864,0.0865,0.0886,0.0888,0.0892,0.094,0.0969,0.103,0.1068,0.118,0.1233,0.1317,0.1383,0.144,0.1463,0.1451,0.1558,0.1538,0.1466,0.1459,0.1333,0.1309,0.162,0.1619,0.1619,0.1619,0.1618,0,0.0888,0.0915,0.0925,0.0936,0.0999,0.0998,0.1087,0.1127,0.1194,0.1241,0.1308,0.1356,0.1437,0.1485,0.1512,0.1528,0.1607,0.1496,0.149,0.1352,0.1329,0.1504,0.1488,0.1624,0.1623,0.1622,0.1621,0,0.0922,0.0926,0.0953,0.0985,0.102,0.1075,0.1147,0.1185,0.1262,0.133,0.1373,0.1433,0.1505,0.154,0.1625,0.158,0.1608,0.1587,0.1417,0.1386,0.1482,0.1469,0.1572,0.1569,0.1566,0.1564,0.1562,0,0.0929,0.0946,0.1,0.1031,0.1061,0.1141,0.118,0.1241,0.1266,0.1351,0.1366,0.146,0.1484,0.1544,0.1469,0.149,0.1579,0.1381,0.1304,0.1494,0.1479,0.147,0.146,0.1195,0.1191,0.1187,0.1184,0,0.0925,0.096,0.0959,0.1034,0.1096,0.114,0.1204,0.1221,0.1269,0.1319,0.1347,0.1382,0.1392,0.1315,0.1307,0.1286,0.1361,0.1302,0.1576,0.1195,0.114,0.1124,0.1128,0.115,0.1154,0.1156,0.1158,0.1159,0.0924,0.0923,0.0937,0.1013,0.1083,0.1114,0.1136,0.1155,0.1179,0.1218,0.1257,0.1261,0.1191,0.1081,0.1054,0.1034,0.1109,0.1103,0.1116,0.1132,0.1026,0.0965,0.0926,0.0928,0.093,0.0932,0.0933,0,0.0872,0.0884,0.0917,0.0975,0.1026,0.1109,0.1124,0.11,0.1103,0.1129,0.1161,0.0929,0.0888,0.0903,0.0778,0.0736,0.0733,0.0773,0.0783,0.0813,0.084,0.0722,0.0542,0.0541,0.0541,0.0541,0,0,0.0835,0.0812,0.0822,0.0896,0.0991,0.1051,0.1064,0.1016,0.0996,0.0897,0.0879,0.0904,0.0852,0.0679,0.0624,0.0615,0.0733,0.0588,0.0886,0.0929,0.0958,0.0992,0.0837,0,0,0,0,0]},{"header":{"parameterUnit":"m.s-1","parameterCategory":2,"la1":30.2991,"la2":30.254,"lo1":-89.0895,"lo2":-89.0444,"dy":0.0017,"dx":0.0017,"nx":28,"ny":28,"refTime":"2024-07-25T21:00:00:Z","depth":"2","parameterNumber":3,"parameterNumberName":"V-component_of_CURRENTS"},"data":[0,0,0,0,0,0,0,0,0,0,0,0,0,0,0,0,0,0,0,0,0,0,0,0,0,0,0,0,0,0,0,0,0,0,0,0,0,0,0,0,0,0,0,0,0,0,0,0,0,0,0,0,0,0,0,0,0,0,-0.0313,-0.0314,0,-0.0391,-0.0392,-0.0392,-0.0456,-0.0457,-0.0457,-0.0458,-0.0556,-0.0558,-0.056,0,0,0,0,0,0,0,0,0,0,0,0,0,-0.0194,-0.0196,-0.0313,-0.0314,-0.0315,-0.0391,-0.0392,-0.0392,-0.0456,-0.0457,-0.0458,-0.0459,-0.0555,-0.0557,-0.056,0,0,0,0,0,0,0,0,0,0,0,0,0,-0.0255,-0.0197,-0.0312,-0.0357,-0.0362,-0.039,-0.0392,-0.0393,-0.0455,-0.0457,-0.0458,-0.0459,-0.0555,-0.0557,-0.056,-0.0553,0,0,-0.0568,-0.057,0,0,0,0,0,0,0,0,-0.0251,-0.0259,-0.0349,-0.0354,-0.0359,-0.0416,-0.0386,-0.0448,-0.0455,-0.0418,-0.0458,-0.046,-0.0511,-0.0518,-0.0527,-0.0557,-0.0561,-0.0569,-0.057,-0.0572,-0.0572,0,0,0,0,0,0,0,-0.0247,-0.0255,-0.0342,-0.035,-0.0357,-0.0365,-0.0375,-0.0398,-0.0456,-0.0421,-0.0426,-0.0438,-0.0514,-0.0524,-0.053,-0.0563,-0.0569,-0.0571,-0.0573,-0.0574,-0.0634,-0.0634,0,0,0,0,0,0,-0.0241,-0.0252,-0.0339,-0.0344,-0.0309,-0.0366,-0.0377,-0.0395,-0.0455,-0.0466,-0.0436,-0.044,-0.0519,-0.0526,-0.0533,-0.0547,-0.0572,-0.0574,-0.0576,-0.0634,-0.0634,-0.0634,0,0,0,0,0,0,-0.0238,-0.0248,-0.0336,-0.0301,-0.0313,-0.0367,-0.0387,-0.0396,-0.0422,-0.0467,-0.0478,-0.0455,-0.052,-0.053,-0.0563,-0.0551,-0.0575,-0.0578,-0.0634,-0.0634,-0.0634,-0.0563,0,0,0,0,0,0,-0.0235,-0.0247,-0.0257,-0.03,-0.0315,-0.0351,-0.0386,-0.0397,-0.0427,-0.0433,-0.0486,-0.0495,-0.0522,-0.0559,-0.0566,-0.0555,-0.058,-0.0634,-0.0634,-0.0634,-0.0565,-0.056,-0.0556,0,0,0,0,0,-0.023,-0.0235,-0.0258,-0.0268,-0.0328,-0.0351,-0.0358,-0.04,-0.0427,-0.0429,-0.0471,-0.0495,-0.0563,-0.0561,-0.0569,-0.0559,-0.0634,-0.0634,-0.0634,-0.0567,-0.0561,-0.0556,0,0,0,0,0,0,-0.0192,-0.0244,-0.0269,-0.0292,-0.032,-0.0363,-0.0371,-0.0402,-0.0437,-0.0448,-0.0494,-0.0505,-0.053,-0.0557,-0.0553,-0.0578,-0.0602,-0.0604,-0.0549,-0.0544,-0.0539,-0.0516,-0.0582,0,0,0,0,0,-0.0188,-0.0209,-0.0253,-0.0273,-0.0283,-0.0329,-0.0346,-0.0374,-0.0411,-0.0428,-0.0466,-0.0506,-0.0532,-0.0549,-0.0578,-0.0589,-0.0602,-0.059,-0.0585,-0.0581,-0.0569,-0.0588,-0.0584,-0.0634,-0.0634,-0.0634,0,0,-0.0181,-0.0212,-0.0225,-0.0266,-0.0291,-0.0297,-0.0341,-0.0364,-0.0373,-0.0432,-0.0455,-0.0493,-0.0534,-0.0548,-0.0561,-0.057,-0.0571,-0.0581,-0.0577,-0.0567,-0.0588,-0.0583,-0.0578,-0.0634,-0.0634,-0.0634,0,0,-0.0165,-0.02,-0.0207,-0.0223,-0.026,-0.0281,-0.0288,-0.0331,-0.0353,-0.0377,-0.0422,-0.0452,-0.0496,-0.0518,-0.0535,-0.0523,-0.0549,-0.0538,-0.0492,-0.051,-0.0506,-0.0502,-0.0495,-0.0492,-0.0532,-0.0532,-0.0532,0,-0.0157,-0.0175,-0.021,-0.0213,-0.0223,-0.027,-0.0269,-0.0288,-0.0339,-0.035,-0.0376,-0.0438,-0.0476,-0.0488,-0.0485,-0.051,-0.052,-0.0506,-0.0502,-0.0499,-0.0496,-0.0491,-0.0487,-0.0529,-0.0529,-0.0529,-0.053,0,-0.0141,-0.0155,-0.0155,-0.0176,-0.0185,-0.0193,-0.0219,-0.0234,-0.0267,-0.0291,-0.0318,-0.0367,-0.0402,-0.0418,-0.0447,-0.0448,-0.0459,-0.0494,-0.0509,-0.0486,-0.0482,-0.048,-0.0524,-0.0525,-0.0526,-0.0527,0,0,-0.013,-0.0143,-0.0146,-0.0148,-0.0169,-0.0175,-0.0173,-0.0188,-0.0189,-0.023,-0.0234,-0.028,-0.0311,-0.0333,-0.0375,-0.0389,-0.0377,-0.0427,-0.043,-0.0408,-0.0398,-0.0359,-0.0353,-0.0414,-0.0414,-0.0414,-0.0396,0,-0.0113,-0.011,-0.0117,-0.0108,-0.0108,-0.0129,-0.012,-0.0136,-0.0157,-0.0167,-0.021,-0.023,-0.0276,-0.0293,-0.0312,-0.0368,-0.0371,-0.0377,-0.0435,-0.0436,-0.0394,-0.0349,-0.0342,-0.0321,-0.0394,-0.0394,-0.0393,0,-0.0096,-0.0099,-0.0087,-0.0081,-0.008,-0.0074,-0.0071,-0.0071,-0.0084,-0.0096,-0.0116,-0.0155,-0.0176,-0.0226,-0.0278,-0.0281,-0.0326,-0.0366,-0.0367,-0.0353,-0.0393,-0.0362,-0.0315,-0.039,-0.0391,-0.0391,-0.0391,0,-0.0081,-0.0076,-0.0068,-0.0068,-0.0064,-0.0057,-0.0052,-0.0055,-0.0046,-0.0052,-0.0047,-0.0083,-0.0103,-0.0161,-0.0243,-0.0259,-0.0302,-0.0339,-0.0339,-0.0336,-0.035,-0.0349,-0.0368,-0.0368,-0.0368,-0.0368,-0.0368,0,-0.0066,-0.006,-0.0062,-0.006,-0.0036,-0.0039,-0.0013,-0.001,0.0001,0.0024,-0.0012,-0.0005,-0.0091,-0.0134,-0.0209,-0.0254,-0.0274,-0.0308,-0.0324,-0.0323,-0.032,-0.0408,-0.0413,-0.0367,-0.0367,-0.0367,-0.0367,0,-0.0056,-0.0058,-0.0049,-0.0042,-0.0031,-0.0019,0.0016,0.0036,0.0047,0.0078,0.0081,0.0057,0.0024,-0.006,-0.0149,-0.0198,-0.026,-0.0279,-0.0254,-0.0267,-0.0283,-0.0285,-0.0246,-0.0244,-0.0243,-0.0241,-0.024,0,-0.0052,-0.005,-0.0037,-0.0021,-0.0017,0.0008,0.0035,0.0056,0.0083,0.0116,0.0134,0.0117,0.0132,0.0039,-0.0058,-0.0136,-0.0213,-0.0199,-0.0222,-0.0248,-0.0269,-0.0273,-0.0276,-0.0213,-0.0212,-0.0211,-0.021,0,-0.0048,-0.0049,-0.0043,-0.0009,0.0017,0.0057,0.0094,0.0126,0.016,0.0207,0.0253,0.0273,0.0213,0.0143,0.0034,-0.0034,-0.0178,-0.0178,-0.0225,-0.0237,-0.0213,-0.0235,-0.0241,-0.0202,-0.0202,-0.0203,-0.0204,-0.0204,-0.0048,-0.0042,-0.0032,0.0007,0.0051,0.0108,0.0153,0.0206,0.0278,0.0386,0.0372,0.0421,0.027,0.018,0.0064,-0.0057,-0.006,-0.0141,-0.0145,-0.0151,-0.0142,-0.0117,-0.0084,-0.0084,-0.0084,-0.0084,-0.0085,0,-0.0042,-0.0034,-0.0007,0.0046,0.0112,0.0131,0.0204,0.027,0.0382,0.0478,0.0573,0.0436,0.0377,0.0209,0.006,-0.0031,-0.0057,-0.0084,-0.0127,-0.0134,-0.014,-0.0134,-0.0072,-0.0072,-0.0073,-0.0073,0,0,-0.004,-0.0019,0.0001,0.0098,0.0152,0.0248,0.0302,0.0403,0.048,0.058,0.0612,0.0673,0.0413,0.028,0.0126,0.0035,-0.0012,0.0029,0.003,-0.0007,-0.0011,-0.0163,-0.0158,0,0,0,0,0]}],[{"header":{"parameterUnit":"m.s-1","parameterCategory":2,"la1":30.2991,"la2":30.254,"lo1":-89.0895,"lo2":-89.0444,"dy":0.0017,"dx":0.0017,"nx":28,"ny":28,"refTime":"2024-07-25T21:00:00:Z","depth":"4","parameterNumber":2,"parameterNumberName":"U-component_of_CURRENTS"},"data":[0,0,0,0,0,0,0,0,0,0,0,0,0,0,0,0,0,0,0,0,0,0,0,0,0,0,0,0,0,0,0,0,0,0,0,0,0,0,0,0,0,0,0,0,0,0,0,0,0,0,0,0,0,0,0,0,0,0,-0.0084,-0.0084,0,-0.0092,-0.0092,-0.0093,-0.0092,-0.0092,-0.0092,-0.0092,-0.0099,-0.0099,-0.0099,0,0,0,0,0,0,0,0,0,0,0,0,0,-0.0089,-0.0088,-0.0084,-0.0084,-0.0084,-0.0092,-0.0092,-0.0093,-0.0092,-0.0092,-0.0092,-0.0092,-0.0099,-0.0099,-0.0099,0,0,0,0,0,0,0,0,0,0,0,0,0,-0.0091,-0.0088,-0.0084,-0.0085,-0.0085,-0.0092,-0.0092,-0.0093,-0.0092,-0.0092,-0.0092,-0.0092,-0.0099,-0.0099,-0.01,-0.0106,0,0,-0.0101,-0.0101,0,0,0,0,0,0,0,0,-0.0091,-0.0091,-0.0085,-0.0085,-0.0085,-0.0091,-0.0097,-0.0097,-0.0092,-0.009,-0.0092,-0.0092,-0.0096,-0.0097,-0.0099,-0.0107,-0.0107,-0.0101,-0.0101,-0.0101,-0.0102,0,0,0,0,0,0,0,-0.009,-0.009,-0.0087,-0.0085,-0.0085,-0.0092,-0.0092,-0.0097,-0.0094,-0.009,-0.009,-0.0091,-0.0096,-0.0099,-0.0099,-0.0107,-0.0101,-0.0101,-0.0102,-0.0102,-0.0118,-0.0118,0,0,0,0,0,0,-0.0088,-0.009,-0.0087,-0.0088,-0.0087,-0.0092,-0.0092,-0.0089,-0.0094,-0.0095,-0.0091,-0.0091,-0.0098,-0.0099,-0.0099,-0.011,-0.0101,-0.0102,-0.0102,-0.0118,-0.0118,-0.0118,0,0,0,0,0,0,-0.0088,-0.0088,-0.0087,-0.0089,-0.009,-0.0092,-0.0089,-0.009,-0.0088,-0.0095,-0.0095,-0.0088,-0.0098,-0.0099,-0.0104,-0.011,-0.0102,-0.0102,-0.0118,-0.0118,-0.0118,-0.0129,0,0,0,0,0,0,-0.0088,-0.0088,-0.0088,-0.0089,-0.0089,-0.0092,-0.0089,-0.009,-0.0089,-0.0088,-0.0093,-0.0093,-0.0098,-0.0103,-0.0104,-0.011,-0.0103,-0.0118,-0.0118,-0.0118,-0.0128,-0.0129,-0.013,0,0,0,0,0,-0.0088,-0.0091,-0.0087,-0.0087,-0.0088,-0.0092,-0.0093,-0.0094,-0.0089,-0.0091,-0.0093,-0.0093,-0.0106,-0.0104,-0.0105,-0.0111,-0.0117,-0.0118,-0.0118,-0.0128,-0.0129,-0.013,0,0,0,0,0,0,-0.0099,-0.0091,-0.0087,-0.0089,-0.0089,-0.0092,-0.0096,-0.0092,-0.0095,-0.0093,-0.0096,-0.0097,-0.0104,-0.0105,-0.0102,-0.0116,-0.0111,-0.0112,-0.0118,-0.0119,-0.012,-0.0122,-0.0103,0,0,0,0,0,-0.01,-0.0097,-0.0092,-0.0096,-0.0094,-0.0093,-0.0094,-0.0092,-0.0094,-0.0095,-0.0094,-0.0097,-0.0107,-0.011,-0.0116,-0.0123,-0.0119,-0.0128,-0.0129,-0.013,-0.0131,-0.0135,-0.0137,-0.0119,-0.0119,-0.0119,0,0,-0.0108,-0.0102,-0.0103,-0.0098,-0.0098,-0.0101,-0.0093,-0.0095,-0.0099,-0.0096,-0.0099,-0.0099,-0.0109,-0.012,-0.0123,-0.0121,-0.013,-0.013,-0.0131,-0.0132,-0.0136,-0.0138,-0.0139,-0.012,-0.012,-0.012,0,0,-0.0122,-0.0114,-0.0115,-0.0113,-0.0109,-0.0108,-0.0106,-0.01,-0.01,-0.0102,-0.0104,-0.0108,-0.0113,-0.0125,-0.0133,-0.0142,-0.0135,-0.014,-0.0149,-0.0153,-0.0154,-0.0156,-0.0142,-0.0142,-0.0142,-0.0142,-0.0142,0,-0.0133,-0.013,-0.0119,-0.0119,-0.0119,-0.011,-0.0113,-0.0116,-0.0112,-0.0111,-0.0104,-0.0114,-0.012,-0.0141,-0.0146,-0.0146,-0.0138,-0.0144,-0.0154,-0.0156,-0.0157,-0.0143,-0.0143,-0.0143,-0.0142,-0.0142,-0.0142,0,-0.0145,-0.0143,-0.0145,-0.0139,-0.0138,-0.014,-0.0136,-0.0133,-0.0125,-0.0125,-0.013,-0.0135,-0.0139,-0.0145,-0.015,-0.0164,-0.0151,-0.0154,-0.0152,-0.0159,-0.0144,-0.0144,-0.0143,-0.0143,-0.0143,-0.0143,0,0,-0.0165,-0.0154,-0.0155,-0.0151,-0.0145,-0.0145,-0.0151,-0.0152,-0.0151,-0.0148,-0.0147,-0.0168,-0.0157,-0.0165,-0.0168,-0.0176,-0.0176,-0.0168,-0.0168,-0.0155,-0.0169,-0.0136,-0.0132,-0.0179,-0.018,-0.018,-0.0151,0,-0.0177,-0.0177,-0.0169,-0.0173,-0.0171,-0.0162,-0.0166,-0.0165,-0.0162,-0.0157,-0.0165,-0.0163,-0.017,-0.0163,-0.0175,-0.0175,-0.0178,-0.0183,-0.0163,-0.0162,-0.0133,-0.0132,-0.0181,-0.0151,-0.0151,-0.0151,-0.0151,0,-0.0187,-0.0184,-0.0187,-0.0176,-0.0174,-0.0174,-0.0167,-0.0168,-0.0167,-0.0161,-0.0163,-0.016,-0.017,-0.0169,-0.0178,-0.0178,-0.0174,-0.0175,-0.0174,-0.014,-0.0129,-0.0144,-0.015,-0.015,-0.015,-0.015,-0.015,0,-0.0197,-0.0194,-0.0195,-0.0193,-0.0184,-0.0179,-0.0169,-0.0165,-0.0155,-0.0155,-0.014,-0.0158,-0.0144,-0.0159,-0.016,-0.0164,-0.0164,-0.0168,-0.0134,-0.0131,-0.0165,-0.0164,-0.0173,-0.0173,-0.0173,-0.0173,-0.0173,0,-0.0204,-0.0205,-0.0196,-0.0194,-0.0186,-0.0176,-0.0162,-0.0157,-0.014,-0.0126,-0.0134,-0.0132,-0.0139,-0.014,-0.0155,-0.0139,-0.0157,-0.0132,-0.0124,-0.0168,-0.0168,-0.0164,-0.0164,-0.0172,-0.0172,-0.0172,-0.0172,0,-0.0209,-0.0208,-0.0207,-0.0196,-0.0188,-0.0179,-0.0142,-0.0129,-0.0114,-0.0093,-0.0086,-0.0095,-0.0098,-0.0106,-0.0119,-0.0111,-0.0115,-0.0107,-0.0141,-0.0135,-0.0078,-0.0079,-0.0058,-0.0056,-0.0055,-0.0054,-0.0053,0,-0.0211,-0.0212,-0.0205,-0.0197,-0.0188,-0.0165,-0.0144,-0.0118,-0.0102,-0.008,-0.0073,-0.0064,-0.0072,-0.0057,-0.0085,-0.0086,-0.0089,-0.0068,-0.0087,-0.0074,-0.0068,-0.007,-0.0072,-0.0052,-0.0051,-0.0051,-0.0051,0,-0.0214,-0.0215,-0.0212,-0.0196,-0.0176,-0.015,-0.0117,-0.0097,-0.0066,-0.0056,-0.0035,-0.0025,-0.0024,-0.0043,-0.0028,-0.0045,-0.0072,-0.0056,-0.0059,-0.0076,-0.0066,-0.0062,-0.0065,-0.0047,-0.0047,-0.0048,-0.0048,0,-0.0217,-0.0214,-0.021,-0.0191,-0.0169,-0.0134,-0.0116,-0.0078,-0.0051,-0.0014,-0.0021,-0.0024,-0.0026,-0.0023,-0.0036,-0.002,-0.0019,-0.0001,-0.0006,-0.0011,-0.0012,0.0007,0.0059,0,0,0,0,0,-0.0216,-0.0208,-0.0198,-0.0177,-0.0154,-0.0134,-0.0099,-0.0082,-0.0052,-0.0019,-0.0004,-0.0006,0.001,-0.0018,0.0006,-0.0036,-0.0036,-0.0007,-0.0021,-0.0025,-0.0029,-0.0036,0,0,0,0,0,0,-0.0215,-0.0211,-0.02,-0.0165,-0.0142,-0.011,-0.0083,-0.0063,-0.0043,-0.0017,-0.0024,0.0011,-0.0003,-0.0005,0.0006,0.0006,0.0006,-0.0005,-0.0004,-0.0022,-0.0026,-0.003,-0.0039,0,0,0,0,0]},{"header":{"parameterUnit":"m.s-1","parameterCategory":2,"la1":30.2991,"la2":30.254,"lo1":-89.0895,"lo2":-89.0444,"dy":0.0017,"dx":0.0017,"nx":28,"ny":28,"refTime":"2024-07-25T21:00:00:Z","depth":"4","parameterNumber":3,"parameterNumberName":"V-component_of_CURRENTS"},"data":[0,0,0,0,0,0,0,0,0,0,0,0,0,0,0,0,0,0,0,0,0,0,0,0,0,0,0,0,0,0,0,0,0,0,0,0,0,0,0,0,0,0,0,0,0,0,0,0,0,0,0,0,0,0,0,0,0,0,0.0405,0.0405,0,0.0391,0.0391,0.0391,0.0406,0.0406,0.0407,0.0407,0.0403,0.0403,0.0402,0,0,0,0,0,0,0,0,0,0,0,0,0,0.0415,0.0415,0.0405,0.0405,0.0404,0.0391,0.0391,0.0391,0.0406,0.0406,0.0407,0.0407,0.0403,0.0403,0.0402,0,0,0,0,0,0,0,0,0,0,0,0,0,0.0408,0.0415,0.0405,0.041,0.041,0.0391,0.0391,0.0391,0.0405,0.0406,0.0407,0.0408,0.0404,0.0403,0.0402,0.0382,0,0,0.0399,0.0399,0,0,0,0,0,0,0,0,0.0408,0.0408,0.0409,0.0409,0.0409,0.04,0.0393,0.0388,0.0405,0.0408,0.0407,0.0408,0.0402,0.0401,0.0398,0.0382,0.0382,0.0399,0.0399,0.0398,0.0398,0,0,0,0,0,0,0,0.0409,0.0408,0.04,0.0409,0.0409,0.0403,0.0403,0.0392,0.0402,0.0408,0.0408,0.0406,0.0403,0.0399,0.0398,0.0382,0.0399,0.0399,0.0398,0.0398,0.0309,0.0308,0,0,0,0,0,0,0.041,0.0409,0.0401,0.04,0.041,0.0402,0.0402,0.0403,0.0402,0.0402,0.0405,0.0406,0.04,0.0399,0.0398,0.0358,0.0398,0.0398,0.0397,0.0311,0.0309,0.0307,0,0,0,0,0,0,0.041,0.0409,0.0401,0.0403,0.0402,0.0401,0.0402,0.0402,0.0409,0.0399,0.04,0.0413,0.0401,0.0399,0.0395,0.0358,0.0397,0.0397,0.0313,0.0311,0.0308,0.0287,0,0,0,0,0,0,0.041,0.041,0.0413,0.0403,0.0401,0.0391,0.0401,0.0402,0.0405,0.0407,0.0406,0.0406,0.0401,0.0396,0.0394,0.0358,0.0396,0.0316,0.0312,0.0309,0.029,0.0284,0.0279,0,0,0,0,0,0.0411,0.0404,0.0413,0.0412,0.0406,0.039,0.0389,0.0391,0.0405,0.0402,0.0406,0.0406,0.0372,0.0395,0.0393,0.0355,0.0317,0.0313,0.0309,0.0293,0.0286,0.0279,0,0,0,0,0,0,0.0405,0.0405,0.0415,0.0408,0.0403,0.0393,0.0388,0.0395,0.0396,0.0407,0.0402,0.0401,0.0375,0.037,0.0396,0.0315,0.0336,0.0332,0.0324,0.0317,0.0312,0.031,0.0395,0,0,0,0,0,0.0407,0.0406,0.0403,0.0398,0.0397,0.0398,0.0394,0.0402,0.0399,0.0401,0.0401,0.0386,0.0352,0.0344,0.0323,0.0295,0.03,0.0261,0.0255,0.0251,0.0245,0.0227,0.022,0.0293,0.0294,0.0294,0,0,0.0401,0.0402,0.0401,0.0397,0.0395,0.0386,0.0398,0.0398,0.0386,0.04,0.0389,0.0375,0.0341,0.0302,0.0288,0.0298,0.0233,0.0245,0.0242,0.0238,0.0222,0.0215,0.0209,0.0291,0.0291,0.0292,0,0,0.038,0.0393,0.0384,0.0384,0.0386,0.0385,0.0388,0.0389,0.0386,0.0372,0.0366,0.034,0.0305,0.027,0.0243,0.0194,0.0206,0.0176,0.0148,0.013,0.0125,0.012,0.013,0.0126,0.0172,0.0172,0.0172,0,0.0373,0.0368,0.0377,0.0368,0.0366,0.0384,0.0374,0.0364,0.0366,0.0352,0.0365,0.0296,0.0279,0.0209,0.0184,0.0181,0.0187,0.0182,0.0126,0.0121,0.0116,0.0127,0.0124,0.017,0.017,0.0171,0.0171,0,0.0345,0.0348,0.034,0.0339,0.0335,0.0333,0.0327,0.0323,0.0325,0.0312,0.0264,0.0242,0.0197,0.0173,0.0162,0.0103,0.0124,0.0127,0.0151,0.0108,0.0122,0.0119,0.0168,0.0169,0.0169,0.0169,0,0,0.0309,0.032,0.0319,0.0322,0.0327,0.0321,0.0296,0.027,0.0248,0.0237,0.0197,0.0131,0.0132,0.0101,0.0085,0.0064,0.004,0.008,0.008,0.0105,0.0024,0.002,0.0016,0.0039,0.0038,0.0037,0.0053,0,0.0285,0.0274,0.0282,0.0271,0.0267,0.0275,0.0245,0.0228,0.0209,0.0178,0.0141,0.0101,0.0098,0.0079,0.0053,0.0042,0.0027,0.0037,0.0049,0.0049,0.0062,0.0009,0.0033,0.0051,0.005,0.0049,0.0049,0,0.0254,0.0254,0.0246,0.0245,0.0242,0.0236,0.0206,0.0182,0.0136,0.0119,0.008,0.0064,0.0017,0.003,-0.0007,0.0004,0.0007,0.0007,0.0008,0.0006,0.0036,0.0096,0.0043,0.0043,0.0044,0.0044,0.0044,0,0.0229,0.0227,0.0226,0.0229,0.0225,0.0214,0.0203,0.0164,0.0141,0.009,0.0076,0.0023,0.0006,-0.0011,-0.0013,-0.001,-0.0031,-0.0025,-0.0023,-0.0021,-0.0007,-0.0002,-0.0049,-0.0049,-0.0049,-0.0049,-0.0049,0,0.0203,0.02,0.022,0.0221,0.0209,0.0205,0.0176,0.0152,0.0116,0.0088,0.0053,0.0022,-0.0004,-0.0017,-0.002,-0.0032,-0.0036,-0.004,-0.0031,-0.0015,-0.0012,-0.0008,-0.0003,-0.0049,-0.0049,-0.0049,-0.0049,0,0.018,0.0193,0.0193,0.0199,0.0203,0.0193,0.0181,0.0152,0.0124,0.009,0.0078,0.0026,-0.0004,-0.0012,-0.0035,-0.0037,-0.0047,-0.0044,-0.0011,0.0002,-0.002,-0.0017,-0.0054,-0.0054,-0.0054,-0.0055,-0.0055,0,0.0167,0.0168,0.0187,0.0193,0.0202,0.0193,0.018,0.0156,0.0132,0.0088,0.007,0.0033,0.0001,-0.003,-0.0047,-0.005,-0.005,-0.0041,-0.0059,-0.004,-0.0027,-0.0023,-0.002,-0.0055,-0.0055,-0.0055,-0.0056,0,0.0142,0.0157,0.0161,0.0176,0.018,0.0175,0.016,0.0143,0.011,0.0105,0.0054,0.0023,-0.0012,-0.0048,-0.0042,-0.0047,-0.0047,-0.0044,-0.0044,-0.0061,-0.0042,-0.0028,-0.0024,-0.0057,-0.0056,-0.0056,-0.0056,0,0.0125,0.0126,0.0138,0.015,0.0161,0.0149,0.0139,0.0114,0.0092,0.0061,0.0044,0.0004,-0.0014,-0.0046,-0.0048,-0.0051,-0.006,-0.0055,-0.0054,-0.0053,-0.0065,-0.0041,-0.0062,0,0,0,0,0,0.0102,0.01,0.0109,0.0114,0.0128,0.014,0.0124,0.011,0.0095,0.0064,0.0056,0.0023,-0.0013,-0.0045,-0.0051,-0.006,-0.0061,-0.0068,-0.0054,-0.0062,-0.0061,-0.0077,0,0,0,0,0,0,0.0084,0.0087,0.0096,0.0091,0.0099,0.0101,0.0096,0.0084,0.0059,0.0051,0.0024,0.0034,-0.0009,0.0001,-0.0045,-0.0049,-0.004,-0.0078,-0.0079,-0.0063,-0.0062,-0.0061,-0.0077,0,0,0,0,0]}]]